SERIAL,TIME,MODEL,SN(OPTODE),OXYGEN,SATURATION,TEMPERATURE,CALPHASE,TCPHASE,C1RPH,C2RPH,C1AMP,C2AMP,RAWTEMP,CHECK
6,1339956537,4330,935,314.8887023925781000,77.7088470458984400,4.3543319702148440,34.1371192932128900,34.4076499938964840,38.8184814453125000,4.4108347892761230,733.0714721679688000,778.4755249023438000,671.3292846679688000,42963
6,1339956895,4330,935,315.9932861328125000,77.8363265991211000,4.2830810546875000,34.1368598937988300,34.4073905944824200,38.8236083984375000,4.4162139892578125,732.8527221679688000,777.9566040039062000,673.5048217773438000,21736
6,1339960141,4330,935,265.8092041015625000,69.0223693847656200,6.3390269279479980,35.0561408996582000,35.3026390075683600,39.7276496887207000,4.4250030517578125,760.0443115234375000,759.0438842773438000,610.0861816406250000,26903
6,1339960228,4330,935,262.1065063476562500,68.4139633178711000,6.5448608398437500,35.1111412048339840,35.3562088012695300,39.7816200256347660,4.4254069328308105,761.5064086914062000,757.3776855468750000,603.6658935546875000,9666
6,1339960320,4330,935,255.4624023437500000,67.2935867309570300,6.9112949371337890,35.2191810607910160,35.4614295959472660,39.8903503417968750,4.4289250373840330,764.0925292968750000,754.1345825195312000,592.2053833007812000,19356
6,1339960442,4330,935,248.7100067138672000,66.1373291015625000,7.2919597625732420,35.3344688415527340,35.5736999511718750,40.0066795349121100,4.4329829216003420,766.8698730468750000,749.7291259765625000,580.2589721679688000,24888
6,1339960566,4330,935,238.7631072998047000,64.4425888061523400,7.8953900337219240,35.4995307922363300,35.7344398498535160,40.1699714660644500,4.4355239868164060,770.4821166992188000,744.0979003906250000,561.2385253906250000,36221
6,1339960690,4330,935,233.8421020507812500,63.5113296508789060,8.1520013809204100,35.6147308349609400,35.8466415405273440,40.2863807678222660,4.4397349357604980,773.0955200195312000,740.4022827148438000,553.1198730468750000,63055
6,1339960815,4330,935,233.9264984130859400,63.3553581237793000,8.0364532470703120,35.6744194030761700,35.9047698974609400,40.3442497253418000,4.4394841194152830,774.8999023437500000,740.3134765625000000,556.7777709960938000,19266
6,1339960938,4330,935,233.9720001220703000,63.1718406677246100,7.9098610877990720,35.7422409057617200,35.9708213806152340,40.4078712463378900,4.4370498657226560,777.1232299804688000,741.0706787109375000,560.7811279296875000,19948
6,1339961062,4330,935,239.1510925292968800,63.3937683105468750,7.1638131141662600,35.8916397094726560,36.1163101196289060,40.5502815246582000,4.4339680671691895,782.2114868164062000,746.6951293945312000,584.2852172851562000,2365
6,1339961187,4330,935,240.6477050781250000,63.2116088867187500,6.7976207733154300,36.0235786437988300,36.2448005676269500,40.6730995178222660,4.4282908439636230,786.7089843750000000,752.6447143554688000,595.7647705078125000,16855
6,1339961311,4330,935,236.7062072753906200,62.4418106079101560,6.9685101509094240,36.1304893493652340,36.3489189147949200,40.7768707275390600,4.4279479980468750,789.5554199218750000,752.6024780273438000,590.4124755859375000,23420
6,1339961467,4330,935,229.5401000976562500,61.3692817687988300,7.5099449157714840,36.2048110961914060,36.4212989807128900,40.8498992919921900,4.4285960197448730,790.9971923828125000,748.2188720703125000,573.3994750976562000,6240
6,1339961684,4330,935,222.6544036865234400,60.2482299804687500,7.9996008872985840,36.3076591491699200,36.5214500427246100,40.9538993835449200,4.4324488639831540,792.7788085937500000,742.1577758789062000,557.9436035156250000,3687
6,1339961964,4330,935,219.3567962646484400,59.7262802124023440,8.2546920776367190,36.3504409790039060,36.5631294250488300,40.9983406066894500,4.4352111816406250,793.7819213867188000,739.2814941406250000,549.8660888671875000,20461
6,1339962184,4330,935,216.2362976074218800,59.2897109985351560,8.5427970886230470,36.3687782287597660,36.5809783935546900,41.0179901123046900,4.4370121955871580,794.0006713867188000,736.6334838867188000,540.7225952148438000,21565
6,1339962392,4330,935,214.7136993408203000,59.2299690246582000,8.7936553955078120,36.3178596496582000,36.5313911437988300,40.9683685302734400,4.4369812011718750,792.1696777343750000,734.0006713867188000,532.7437744140625000,38830
6,1339962610,4330,935,214.2796936035156200,59.3640708923339840,8.9717674255371100,36.2452201843261700,36.4606590270996100,40.8982505798339840,4.4375991821289060,790.2910156250000000,732.2208251953125000,527.0689697265625000,7259
6,1339962866,4330,935,216.4707946777343800,60.2249984741210940,9.1479282379150390,36.0219383239746100,36.2431983947753900,40.6827507019043000,4.4395518302917480,784.1727294921875000,730.2941894531250000,521.4487304687500000,54825
6,1339963125,4330,935,219.5050048828125000,61.4587402343750000,9.4141349792480470,35.7044296264648440,35.9339981079101560,40.3752593994140600,4.4412608146667480,775.8670043945312000,727.8115844726562000,512.9411010742188000,55489
6,1339963357,4330,935,222.2241058349609400,62.6513290405273440,9.7047472000122070,35.3948898315429700,35.6325416564941400,40.0719795227050800,4.4394378662109375,767.5803222656250000,725.8342285156250000,503.6341857910156000,32711
6,1339963613,4330,935,229.1062011718750000,65.1300811767578100,10.0560398101806640,34.8313484191894500,35.0837287902832000,39.5250892639160160,4.4413528442382810,752.3405761718750000,721.8145751953125000,492.3576965332031000,50933
6,1339963869,4330,935,234.9523925781250000,67.3780975341796900,10.4280395507812500,34.3264389038085940,34.5920104980468750,39.0364494323730500,4.4444432258605960,738.5670776367188000,718.1765747070312000,480.3859863281250000,25128
6,1339963991,4330,935,237.0662994384765600,68.1742630004882800,10.5473899841308600,34.1545791625976560,34.4246406555175800,38.8707885742187500,4.4461441040039060,733.9592285156250000,716.7921142578125000,476.5387878417969000,38930
6,1339964113,4330,935,238.9983978271484400,68.8636932373046900,10.6307096481323240,34.0121803283691400,34.2859687805175800,38.7324409484863300,4.4464650154113770,730.0565795898438000,715.7716064453125000,473.8510131835937500,52417
6,1339964223,4330,935,241.8903045654297000,69.9029235839843800,10.7573795318603520,33.8000793457031250,34.0794105529785160,38.5255699157714840,4.4461669921875000,724.4758911132812000,714.6696777343750000,469.7623901367187500,27044
6,1339964333,4330,935,243.0308074951172000,70.4379730224609400,10.8830499649047850,33.6782684326171900,33.9607810974121100,38.4064216613769500,4.4456329345703125,721.1849975585938000,713.8248291015625000,465.7025146484375000,32649
6,1339964449,4330,935,247.0814056396484400,71.8450622558593800,11.0232095718383790,33.4061889648437500,33.6958198547363300,38.1432189941406250,4.4474029541015625,713.7321777343750000,711.9619140625000000,461.1706848144531000,16597
6,1339964601,4330,935,249.5679016113281200,72.6880416870117200,11.0945396423339840,33.2488708496093750,33.5426101684570300,37.9892997741699200,4.4466929435729980,709.5714721679688000,710.9432983398438000,458.8627014160156000,9100
6,1339964749,4330,935,250.8323974609375000,73.1588592529296900,11.1552095413208000,33.1571388244628900,33.4532699584960940,37.8999900817871100,4.4467239379882810,707.1013183593750000,710.5958862304688000,456.8989868164062500,33194
6,1339964871,4330,935,252.8347015380859400,73.9763793945312500,11.2921600341796880,32.9918594360351560,33.2923088073730500,37.7401390075683600,4.4478230476379395,702.7448730468750000,709.4207763671875000,452.4634094238281000,10995
6,1339964993,4330,935,253.7812042236328000,74.3908767700195300,11.3725404739379880,32.9064102172851560,33.2090911865234400,37.6571197509765600,4.4480290412902830,700.1981811523438000,708.5252075195312000,449.8583984375000000,5283
6,1339965127,4330,935,254.5830993652343800,74.7833099365234400,11.4641199111938480,32.8222808837890600,33.1271705627441400,37.5749206542968750,4.4477539062500000,697.9124145507812000,707.6002197265625000,446.8887939453125000,26631
6,1339965261,4330,935,254.0717010498047000,74.7820510864257800,11.5509500503540040,32.8022308349609400,33.1076393127441400,37.5538291931152340,4.4461898803710940,697.3668823242188000,706.8742065429688000,444.0719909667969000,19037
6,1339965400,4330,935,254.4107971191406200,75.0068130493164000,11.6236400604248050,32.7494812011718750,33.0562705993652340,37.5041007995605500,4.4478378295898440,695.9869995117188000,706.0244140625000000,441.7125854492187500,34330
6,1339965510,4330,935,254.2592010498047000,75.0192108154296900,11.6568603515625000,32.7401504516601560,33.0471801757812500,37.4940681457519500,4.4468917846679690,695.8693847656250000,705.7493286132812000,440.6340026855469000,48848
6,1339965632,4330,935,255.8256988525390600,75.6865997314453100,11.7754802703857420,32.6069908142089840,32.9174995422363300,37.3655281066894500,4.4480290412902830,692.1544799804688000,704.7891235351562000,436.7807922363281000,20400
6,1339965754,4330,935,257.5703125000000000,76.3583297729492200,11.8647804260253900,32.4812011718750000,32.7949981689453100,37.2428016662597660,4.4478001594543460,688.6392211914062000,704.0825805664062000,433.8785095214844000,36810
6,1339965876,4330,935,261.6936035156250000,77.8689193725586000,12.0274801254272460,32.2118110656738300,32.5326499938964840,36.9803504943847660,4.4477081298828125,681.4255981445312000,702.7468872070312000,428.5869140625000000,35913
6,1339965998,4330,935,263.8807983398437500,78.6903305053711000,12.1229295730590820,32.0660591125488300,32.3907089233398440,36.8385391235351560,4.4478302001953125,677.3742065429688000,701.5764160156250000,425.4801940917969000,54924
6,1339966120,4330,935,265.1785888671875000,79.1243133544921900,12.1490497589111330,31.9951400756835940,32.3216400146484400,36.7709197998046900,4.4492797851562500,675.6920776367188000,701.1718750000000000,424.6296081542969000,866
6,1339966242,4330,935,266.1955871582031000,79.4992065429687500,12.1886501312255860,31.9307098388671880,32.2588996887207000,36.7070388793945300,4.4481430053710940,673.8867797851562000,700.7109985351562000,423.3402099609375000,27144
6,1339966352,4330,935,267.0660095214844000,79.8675918579101600,12.2485599517822270,31.8627204895019530,32.1926918029785160,36.6385002136230500,4.4458160400390625,672.1530151367188000,700.2653808593750000,421.3887939453125000,30094
6,1339966468,4330,935,269.2189941406250000,80.5838775634765600,12.2882404327392580,31.7487297058105470,32.0816688537597660,36.5277481079101560,4.4460749626159670,668.9901733398438000,699.9500122070312000,420.0960083007812500,26667
6,1339966597,4330,935,271.4808959960937500,81.3152084350586000,12.3177299499511720,31.6358890533447270,31.9717903137207030,36.4176902770996100,4.4458999633789060,665.9161987304688000,699.6121215820312000,419.1351013183594000,37285
6,1339966745,4330,935,273.8959960937500000,82.1192321777343800,12.3611202239990230,31.5108509063720700,31.8500099182128900,36.2972984313964840,4.4472961425781250,662.7103881835938000,699.8081054687500000,417.7207946777344000,31002
6,1339966855,4330,935,276.8754882812500000,82.9814376831054700,12.3445301055908200,31.3922500610351560,31.7345104217529300,36.1813697814941400,4.4468607902526855,659.4890136718750000,699.3555908203125000,418.2614135742187500,13635
6,1339966959,4330,935,276.6965942382812500,83.0197982788086000,12.3935699462890620,31.3761405944824220,31.7188205718994140,36.1653289794921900,4.4465098381042480,658.9511718750000000,699.2908935546875000,416.6630859375000000,22578
6,1339967100,4330,935,276.7803039550781000,83.2265396118164000,12.4902200698852540,31.3256607055664060,31.6696605682373050,36.1154594421386700,4.4457931518554690,657.7219238281250000,698.8333129882812000,413.5111083984375000,31591
6,1339967247,4330,935,278.8551940917969000,83.8921432495117200,12.5122499465942380,31.2278308868408200,31.5743808746337900,36.0208015441894500,4.4464187622070310,655.1102294921875000,698.5964965820312000,412.7923889160156000,15057
6,1339967369,4330,935,283.4493103027344000,85.3631896972656200,12.5584697723388670,31.0151901245117200,31.3673000335693360,35.8119010925293000,4.4445948600769040,649.3126831054688000,698.1674194335938000,411.2846984863281000,27388
6,1339967479,4330,935,284.5874938964844000,85.8494033813476600,12.6326599121093750,30.9332008361816400,31.2874507904052730,35.7324714660644500,4.4450149536132810,647.0568847656250000,697.6724853515625000,408.8634033203125000,59079
6,1339967601,4330,935,288.9559020996094000,87.2226181030273400,12.6608800888061520,30.7432804107666000,31.1024894714355470,35.5472984313964840,4.4448089599609375,642.0023803710938000,697.4279174804688000,407.9421997070312500,29812
6,1339967735,4330,935,291.3341064453125000,88.0008163452148400,12.6913700103759770,30.6337108612060550,30.9958000183105470,35.4394187927246100,4.4436259269714355,639.0087280273438000,697.3129272460938000,406.9465026855469000,64995
6,1339967809,4330,935,291.9525146484375000,88.2400131225586000,12.7177896499633790,30.5966606140136720,30.9597091674804700,35.4024009704589840,4.4426879882812500,637.9310302734375000,697.0059204101562000,406.0840148925781000,53955
6,1339967881,4330,935,292.3299865722656000,88.3837890625000000,12.7327299118042000,30.5748596191406250,30.9384803771972660,35.3828010559082000,4.4443211555480960,637.4752197265625000,696.9879760742188000,405.5961914062500000,61652
6,1339967974,4330,935,293.5393066406250000,88.9124832153320300,12.8144197463989260,30.4883499145507800,30.8542308807373050,35.2957611083984400,4.4415359497070310,634.9229736328125000,696.5778808593750000,402.9276123046875000,8094
6,1339968054,4330,935,293.3591918945312500,89.1302185058593800,12.9508600234985350,30.4303493499755860,30.7977409362792970,35.2421302795410160,4.4443821907043460,633.5557861328125000,695.8842773437500000,398.4684143066406000,23456
6,1339968116,4330,935,291.5700988769531000,88.7118377685546900,13.0139598846435550,30.4705505371093750,30.8369007110595700,35.2805786132812500,4.4436798095703125,634.4710083007812000,694.9097290039062000,396.4053955078125000,31254
6,1339968176,4330,935,291.5365905761719000,88.7298507690429700,13.0281496047973630,30.4651203155517580,30.8316001892089840,35.2756309509277340,4.4440307617187500,634.2899169921875000,694.5346069335938000,395.9413146972656000,24385
6,1339968268,4330,935,290.1903076171875000,88.5205535888671900,13.1296100616455080,30.4702491760253900,30.8365993499755860,35.2802085876464840,4.4436111450195310,634.3359985351562000,694.0440063476562000,392.6224975585937500,37590
6,1339968346,4330,935,290.1943969726562500,88.6291198730468800,13.1839103698730470,30.4444007873535160,30.8114299774169920,35.2541389465332000,4.4427108764648440,633.5718994140625000,693.5546264648438000,390.8457946777344000,4598
6,1339968438,4330,935,290.2235107421875000,88.9643936157226600,13.3488702774047850,30.3652992248535160,30.7343902587890620,35.1805686950683600,4.4461817741394040,631.5510864257812000,692.5765991210938000,385.4450988769531000,43175
6,1339968520,4330,935,290.2803955078125000,89.1578674316406200,13.4378004074096680,30.3211898803710940,30.6914405822753900,35.1376304626464840,4.4461898803710940,630.2451782226562000,691.6292724609375000,382.5321044921875000,4891
6,1339968612,4330,935,290.1011047363281000,89.4167175292968800,13.5963602066040040,30.2536602020263670,30.6256694793701170,35.0733795166015600,4.4477081298828125,628.3004150390625000,690.6121215820312000,377.3351135253906000,37378
6,1339968691,4330,935,290.0275878906250000,89.8882064819336000,13.8457498550415040,30.1398391723632800,30.5148296356201170,34.9646186828613300,4.4497909545898440,625.2614135742188000,688.8491210937500000,369.1546020507812500,51640
6,1339968784,4330,935,291.1560974121094000,90.5352630615234400,13.9950895309448240,30.0258693695068360,30.4038391113281250,34.8563194274902340,4.4524769783020020,621.8237304687500000,687.1328125000000000,364.2521057128906000,13267
6,1339968864,4330,935,292.3991088867187500,91.3341369628906200,14.2011299133300780,29.8818893432617200,30.2636203765869140,34.7166404724121100,4.4530181884765625,617.8895263671875000,685.7916870117188000,357.4837036132812500,22968
6,1339968926,4330,935,293.5921020507812500,92.4101409912109400,14.5507001876831050,29.6745891571044920,30.0617408752441400,34.5157585144043000,4.4540247917175290,612.1809082031250000,683.7307739257812000,345.9890136718750000,54041
6,1339968986,4330,935,295.1178894042969000,93.4042510986328100,14.8043899536132810,29.4999904632568360,29.8917007446289060,34.3484306335449200,4.4567260742187500,607.1284790039062000,681.3043212890625000,337.6387023925781000,42900
6,1339969078,4330,935,297.2445068359375000,95.2334976196289000,15.3699998855590820,29.1634101867675780,29.5639190673828120,34.0245018005371100,4.4605789184570310,597.7733154296875000,677.1472167968750000,318.9984130859375000,42410
6,1339969153,4330,935,299.2222900390625000,96.4735870361328100,15.6641101837158200,28.9574108123779300,29.3633003234863280,33.8256416320800800,4.4623341560363770,591.5601806640625000,673.2139282226562000,309.2947998046875000,34574
6,1339969221,4330,935,303.2535095214844000,97.8867797851562500,15.7183504104614260,28.7838191986084000,29.1942405700683600,33.6576309204101560,4.4633870124816895,586.7113037109375000,671.5972290039062000,307.5043945312500000,11162
6,1339969281,4330,935,305.3033142089844000,98.6820831298828100,15.7818403244018550,28.6805992126464840,29.0937194824218750,33.5591392517089840,4.4654159545898440,584.0012207031250000,670.8046264648438000,305.4085998535156000,23806
6,1339969349,4330,935,304.5603942871094000,99.0578765869140600,16.0747604370117200,28.5782699584960940,28.9940700531005860,33.4571189880371100,4.4630508422851560,581.8732910156250000,669.9260253906250000,295.7349853515625000,17588
6,1339969411,4330,935,303.1671142578125000,99.0613098144531200,16.2926692962646500,28.5335407257080080,28.9505100250244140,33.4145507812500000,4.4640431404113770,584.0806884765625000,670.1951293945312000,288.5354919433594000,19572
6,1339969448,4330,935,300.3295898437500000,99.7813568115234400,17.0843906402587900,28.2925796508789060,28.7158393859863280,33.1821784973144500,4.4663391113281250,580.8463745117188000,668.0905761718750000,262.3559875488281000,2447
6,1339970490,4330,935,306.2962951660156000,98.1513671875000000,15.3784103393554690,28.8237094879150400,29.2330894470214840,33.6911506652832000,4.4580540657043460,595.3563232421875000,671.6696777343750000,318.7210083007812500,63523
6,1339970517,4330,935,307.3269042968750000,98.2515792846679700,15.2697000503540040,28.8347606658935550,29.2438507080078120,33.7013092041015600,4.4574580192565920,595.8709106445312000,672.6331176757812000,322.3060913085937500,64258
6,1339970539,4330,935,305.0166931152344000,97.6708602905273400,15.3448896408081050,28.8854103088378900,29.2931804656982420,33.7493095397949200,4.4561228752136230,597.3947753906250000,672.1569824218750000,319.8266906738281000,3666
6,1339970562,4330,935,303.8310852050781000,97.6383895874023400,15.5107698440551760,28.8547706604003900,29.2633399963378900,33.7162895202636700,4.4529418945312500,596.3909301757812000,671.6463012695312000,314.3548889160156000,34772
6,1339970584,4330,935,303.2135925292969000,97.5678329467773400,15.5719699859619140,28.8504104614257800,29.2590904235839840,33.7119407653808600,4.4528498649597170,596.3626708984375000,671.4547119140625000,312.3353881835937500,41767
6,1339970606,4330,935,306.1079101562500000,98.0199737548828100,15.3447198867797850,28.8456707000732420,29.2544803619384770,33.7058601379394500,4.4513850212097170,596.0360717773438000,671.7401123046875000,319.8323059082031000,64279
6,1339970628,4330,935,307.6303100585937500,98.0929031372070300,15.1489200592041020,28.8777008056640620,29.2856693267822270,33.7359886169433600,4.4503250122070310,597.2973022460938000,672.8322143554688000,326.2878112792969000,25747
6,1339970651,4330,935,297.0392150878906000,96.2745971679687500,15.9104604721069340,28.9295997619628900,29.3362197875976560,33.7854003906250000,4.4491810798645020,598.7639770507812000,672.8947143554688000,301.1618957519531000,51426
6,1339970673,4330,935,298.6720886230469000,96.7139587402343800,15.8668603897094730,28.8877906799316400,29.2954998016357420,33.7445716857910160,4.4490661621093750,597.4575805664062000,672.5134277343750000,302.6015014648437500,1880
6,1339970695,4330,935,304.4534912109375000,97.6954574584961000,15.4426202774047850,28.8623409271240230,29.2707099914550780,33.7198181152343750,4.4491038322448730,596.8406982421875000,672.0985717773438000,316.6032104492187500,11971
6,1339970718,4330,935,294.9190063476562500,96.1802368164062500,16.2014598846435550,28.8806991577148440,29.2885894775390620,33.7365303039550800,4.4479451179504395,597.2814941406250000,672.4802856445312000,291.5494995117187500,43307
6,1339970740,4330,935,303.2143859863281000,97.7225875854492200,15.6458797454833980,28.8175697326660160,29.2271099090576170,33.6731986999511700,4.4460911750793460,595.3162231445312000,671.1953735351562000,309.8963012695312500,27381
6,1339970762,4330,935,305.5557861328125000,97.9895477294921900,15.4142704010009770,28.8347091674804700,29.2437992095947270,33.6900405883789060,4.4462361335754395,595.7854003906250000,670.9813232421875000,317.5382995605469000,56121
6,1339970785,4330,935,305.2925109863281000,97.8423995971679700,15.3844604492187500,28.8577499389648440,29.2662391662597660,33.7150306701660160,4.4487838745117190,596.6329956054688000,671.8411254882812000,318.5213928222656000,41608
